Location: Gimli
(50.6330°N, 97.0000°W)
Time: 09:16:24
(UTC-06:00)

X-37B - Visible Passes

Search period start: 27 November 2020 00:00
Search period end: 07 December 2020 00:00
Orbit: 384 x 389 km, 45.0° (Epoch: 12 November)

Date Brightness Start Highest point End Pass type
(mag) Time Alt. Az. Time Alt. Az. Time Alt. Az.
28 Nov 3.1 18:52:53 10° SSW 18:53:55 15° S 18:53:55 15° S visible
29 Nov 3.0 17:55:11 10° S 17:56:49 13° SSE 17:58:00 11° SE visible
29 Nov 3.9 19:30:04 10° SW 19:30:16 11° SW 19:30:16 11° SW visible
30 Nov 2.3 18:31:49 10° SW 18:34:20 23° SSE 18:34:20 23° SSE visible
01 Dec 2.7 17:33:45 10° SSW 17:36:01 18° SSE 17:38:18 10° ESE visible
01 Dec 3.1 19:09:18 10° WSW 19:10:39 20° SW 19:10:39 20° SW visible
02 Dec 2.1 18:10:55 10° SW 18:13:41 27° S 18:14:41 22° SE visible
03 Dec 2.5 17:12:40 10° SW 17:15:16 23° SSE 17:17:52 10° ESE visible
03 Dec 2.3 18:48:37 10° WSW 18:51:00 27° SSW 18:51:00 27° SSW visible
04 Dec 2.1 17:50:10 10° WSW 17:52:59 29° S 17:55:05 15° ESE visible
04 Dec 3.7 19:26:37 10° WSW 19:27:22 14° WSW 19:27:22 14° WSW visible
05 Dec 2.3 18:28:00 10° WSW 18:30:42 25° S 18:31:30 23° SSE visible
06 Dec 2.3 17:29:29 10° WSW 17:32:17 29° S 17:35:05 10° ESE visible
06 Dec 3.3 19:06:16 10° WSW 19:08:00 16° SSW 19:08:00 16° SSW visible
